Tracking 27428 objects as of 31-May-2023
HD Live streaming from Space Station
objects crossing your sky now

COSMOS 2251 DEB

Track COSMOS 2251 DEB now!
10-day predictions


NORAD ID: 35970
Int'l Code: 1993-036AVL
Perigee: 652.3 km
Apogee: 698.6 km
Inclination: 74.0 °
Period: 98.1 minutes
Semi major axis: 7046 km
RCS: 0.0106 m2 (small)
Launch date: June 16, 1993
Source: Commonwealth of Independent States (former USSR) (CIS)
Launch site: PLESETSK MISSILE AND SPACE COMPLEX (PKMTR)

Note: This is SATELLITE DEBRIS
Your satellite tracking list
Your tracking list is empty




NASA's NSSDC Master Catalog

Two Line Element Set (TLE):
1 35970U 93036AVL 23150.95885095  .00006432  00000-0  11243-2 0  9993
2 35970  74.0374 233.0222 0032871 213.3503 146.5597 14.67736496730801
Source of the keplerian elements: AFSPC